This is the latest recevied weather packets stored in our database for station/object DL1NER. If no packets are shown the sender has not sent any weather packets the latest 10 day(s).
| Time | Temp. | Humidity | Pressure | Rain* | Wind** | Luminosity | Snow |
|---|---|---|---|---|---|---|---|
| 1777737612 | 26.67° C | 23% | 1017.5 hPa | 0 mm | - | 0 W/m² | - |
| 1777737011 | 26.67° C | 21% | 1017.4 hPa | 0 mm | - | 0 W/m² | - |
| 1777736412 | 26.67° C | 22% | 1017.6 hPa | 0 mm | - | 0 W/m² | - |
| 1777735811 | 27.22° C | 22% | 1017.7 hPa | 0 mm | - | 0 W/m² | - |
| 1777735211 | 27.22° C | 22% | 1017.8 hPa | 0 mm | - | 0 W/m² | - |
| 1777734612 | 27.22° C | 22% | 1018 hPa | 0 mm | - | 0 W/m² | - |
| 1777734011 | 27.22° C | 20% | 1018 hPa | 0 mm | - | 0 W/m² | - |
| 1777732211 | 27.22° C | 21% | 1018.6 hPa | 0 mm | - | 0 W/m² | - |
| 1777731612 | 26.67° C | 23% | 1018.6 hPa | 0 mm | - | 0 W/m² | - |
| 1777731011 | 26.67° C | 26% | 1018.8 hPa | 0 mm | - | 0 W/m² | - |
| 1777730410 | 26.67° C | 25% | 1018.9 hPa | 0 mm | - | 0 W/m² | - |
| 1777729811 | 26.67° C | 24% | 1019 hPa | 0 mm | - | 0 W/m² | - |
| 1777729210 | 27.22° C | 23% | 1019.1 hPa | 0 mm | - | 0 W/m² | - |
| 1777728612 | 27.22° C | 23% | 1019.2 hPa | 0 mm | - | 0 W/m² | - |
| 1777728011 | 26.67° C | 23% | 1019.4 hPa | 0 mm | - | 0 W/m² | - |
| 1777727410 | 26.67° C | 32% | 1019.5 hPa | 0 mm | - | 0 W/m² | - |
| 1777726811 | 26.67° C | 23% | 1019.8 hPa | 0 mm | - | 0 W/m² | - |
| 1777726210 | 26.67° C | 27% | 1019.9 hPa | 0 mm | - | 0 W/m² | - |
| 1777725610 | 26.67° C | 32% | 1020.1 hPa | 0 mm | - | 0 W/m² | - |
| 1777725010 | 26.11° C | 28% | 1020.2 hPa | 0 mm | - | 0 W/m² | - |
| 1777724410 | 26.11° C | 28% | 1020.2 hPa | 0 mm | - | 0 W/m² | - |
| 1777723811 | 26.11° C | 32% | 1020.4 hPa | 0 mm | - | 0 W/m² | - |
| 1777723210 | 25.56° C | 29% | 1020.5 hPa | 0 mm | - | 0 W/m² | - |
| 1777722610 | 25.56° C | 32% | 1020.8 hPa | 0 mm | - | 0 W/m² | - |
| 1777722011 | 25.56° C | 32% | 1020.8 hPa | 0 mm | - | 0 W/m² | - |
* Rain latest hour (hover to see other rain measurements)
** Current wind speed in m/s (hover to see current wind gust speed)